Narsaq

KL  EN  DA
ASIAQ
Weather Now GREENLAND SURVEY
Updated [WGT/WGST] Temperature [°C] Wind [m/s] Air pressure [hPa] Relative humidity [%] Precipitation [mm]
Present Wind chill Speed Max
21.01 20:00-9,7-15,13,0 ⇙6,899557n/a
21.01 19:00-8,6-12,11,8 ⇐5,899558n/a
21.01 18:00-9,10,01,2 ⇙3,099560n/a
21.01 17:00-8,7-13,02,3 ⇙3,999560n/a
21.01 16:00-8,6-11,31,4 ⇙3,199562n/a
21.01 15:00-9,00,00,9 ⇙2,999656n/a
21.01 14:00-7,70,01,1 ⇗2,499658n/a
21.01 13:00-8,4-11,81,8 ⇗2,899670n/a
21.01 12:00-8,0-10,91,5 ⇗2,399766n/a
21.01 11:00-8,40,00,9 ⇗2,199772n/a
21.01 10:00-7,40,01,2 ⇗2,099773n/a
21.01 09:00-7,60,01,2 ⇗2,399773n/a
21.01 08:00-7,50,01,2 ⇗3,399780n/a
21.01 07:00-6,7-11,12,7 ⇗4,399774n/a
21.01 06:00-6,1-10,72,9 ⇗4,699769n/a
21.01 05:00-5,8-10,53,1 ⇗4,999773n/a
21.01 04:00-5,5-10,93,9 ⇗5,999780n/a
21.01 03:00-5,2-11,55,1 ⇗7,899777n/a
21.01 02:00-5,0-11,25,1 ⇗7,499681n/a
21.01 01:00-4,5-10,65,1 ⇗6,599579n/a
21.01 00:00-4,5-10,65,2 ⇗7,099581n/a
20.01 23:00-4,0-7,82,5 ⇗5,899481n/a
20.01 22:00-4,10,00,0 ⇓0,099390n/a
20.01 21:00-3,90,00,0 ⇓0,099288n/a
20.01 20:00-3,70,00,0 ⇓0,099192n/a
Position: (60.91702778,-46.05905556)

[Back]